Weather History for KBCK - March, 2013

Change the Weather History Date:

Monday, March 25, 2013

  Actual Average (KLSE) Record (KLSE)
Temperature  
Mean Temperature 28 °F 39 °F  
Max Temperature 35 °F 48 °F 83 °F (2007)
Min Temperature 21 °F 29 °F 3 °F (1940)
Degree Days  
Heating Degree Days 37 26  
Month to date heating degree days 796  
Since 1 July heating degree days 6305  
Cooling Degree Days 0 0  
Month to date cooling degree days 0  
Year to date cooling degree days 0  
Moisture  
Dew Point 20 °F    
Average Humidity 68    
Maximum Humidity 86    
Minimum Humidity 52    
Precipitation  
Precipitation 0.00 in 0.08 in 1.25 in (1945)
Month to date precipitation 1.56  
Year to date precipitation 3.73  
Snow  
Snow 0.00 in 0.10 in 6.20 in (1964)
Month to date snowfall 6.2  
Since 1 July snowfall 40.7  
Snow Depth -    
Sea Level Pressure  
Sea Level Pressure 30.02 in    
Wind  
Wind Speed 9 mph (North)    
Max Wind Speed 14 mph    
Max Gust Speed 21 mph    
Visibility 10 miles    
Events      
T = Trace of Precipitation, MM = Missing Value Source: NWS Daily Summary

Daily Weather History Graph

Daily Weather History Graph

Search for Another Location

Airport or City:

Trip Planner

Search our weather history database for the weather conditions in past years. The results will help you decide how hot, cold, wet, or windy it might be!

Date:

Astronomy

Mar. 25, 2013 Rise Set
Actual Time 6:56 AM CDT 7:22 PM CDT
Civil Twilight 6:27 AM CDT 7:51 PM CDT
Nautical Twilight 5:53 AM CDT 8:25 PM CDT
Astronomical Twilight 5:18 AM CDT 9:01 PM CDT
Moon 5:52 PM CDT (3/25) 5:43 AM CDT (3/25)
Length of Visible Light 13h 23m
Length of Day
12h 25m
Waxing Gibbous, 96% of the Moon is Illuminated
Mar 25
Waxing Gibbous
Mar 27
Full
Apr 2
Last Quarter
Apr 10
New
Apr 18
First Quarter

Hourly Weather History & Observations

Time (CDT) Temp. Windchill Dew Point Humidity Pressure Visibility Wind Dir Wind Speed Gust Speed Precip Events Conditions
12:15 AM 30.2 °F 19.8 °F 21.2 °F 69% 29.93 in 10.0 mi NNE 13.8 mph - N/A   Overcast
12:35 AM 30.2 °F 19.8 °F 21.2 °F 69% 29.93 in 10.0 mi NNE 13.8 mph 17.3 mph N/A   Overcast
12:55 AM 30.2 °F 20.8 °F 21.2 °F 69% 29.94 in 10.0 mi NE 11.5 mph 20.7 mph N/A   Overcast
1:15 AM 30.2 °F 23.4 °F 21.2 °F 69% 29.93 in 10.0 mi North 6.9 mph - N/A   Overcast
1:35 AM 30.2 °F 23.4 °F 19.4 °F 64% 29.93 in 10.0 mi North 6.9 mph - N/A   Overcast
1:55 AM 28.4 °F 19.1 °F 19.4 °F 69% 29.93 in 10.0 mi NNE 10.4 mph 16.1 mph N/A   Mostly Cloudy
2:15 AM 28.4 °F 18.5 °F 17.6 °F 64% 29.93 in 10.0 mi NNE 11.5 mph - N/A   Scattered Clouds
2:35 AM 28.4 °F 21.2 °F 17.6 °F 64% 29.93 in 10.0 mi North 6.9 mph 17.3 mph N/A   Clear
2:55 AM 26.6 °F 17.5 °F 17.6 °F 69% 29.94 in 10.0 mi North 9.2 mph - N/A   Clear
3:15 AM 26.6 °F 17.5 °F 17.6 °F 69% 29.94 in 10.0 mi North 9.2 mph - N/A   Clear
3:55 AM 24.8 °F 19.1 °F 17.6 °F 74% 29.93 in 10.0 mi North 4.6 mph - N/A   Clear
4:15 AM 24.8 °F 19.1 °F 17.6 °F 74% 29.93 in 10.0 mi NNW 4.6 mph - N/A   Clear
4:35 AM 23.0 °F 17.0 °F 17.6 °F 80% 29.94 in 10.0 mi North 4.6 mph - N/A   Clear
4:55 AM 23.0 °F 18.4 °F 17.6 °F 80% 29.93 in 10.0 mi North 3.5 mph - N/A   Clear
5:15 AM 23.0 °F 14.7 °F 17.6 °F 80% 29.93 in 10.0 mi North 6.9 mph - N/A   Clear
5:35 AM 23.0 °F 15.8 °F 17.6 °F 80% 29.94 in 10.0 mi North 5.8 mph - N/A   Clear
5:55 AM 23.0 °F 15.8 °F 17.6 °F 80% 29.94 in 10.0 mi North 5.8 mph - N/A   Clear
6:15 AM 23.0 °F 18.4 °F 17.6 °F 80% 29.95 in 10.0 mi North 3.5 mph - N/A   Clear
6:35 AM 23.0 °F 14.7 °F 17.6 °F 80% 29.95 in 10.0 mi North 6.9 mph - N/A   Clear
6:55 AM 23.0 °F 13.9 °F 17.6 °F 80% 29.95 in 10.0 mi North 8.1 mph - N/A   Clear
7:15 AM 21.2 °F 10.9 °F 17.6 °F 86% 29.96 in 10.0 mi North 9.2 mph - N/A   Clear
7:35 AM 23.0 °F 18.4 °F 17.6 °F 80% 29.97 in 10.0 mi NNW 3.5 mph - N/A   Clear
7:55 AM 23.0 °F 15.8 °F 19.4 °F 86% 29.98 in 10.0 mi North 5.8 mph - N/A   Clear
8:15 AM 23.0 °F 15.8 °F 19.4 °F 86% 29.98 in 10.0 mi North 5.8 mph - N/A   Clear
8:35 AM 24.8 °F 17.9 °F 19.4 °F 80% 29.99 in 10.0 mi NNW 5.8 mph - N/A   Mostly Cloudy
8:55 AM 24.8 °F 16.1 °F 19.4 °F 80% 30.00 in 10.0 mi NNW 8.1 mph - N/A   Overcast
9:15 AM 26.6 °F 21.2 °F 19.4 °F 74% 30.01 in 10.0 mi NNW 4.6 mph - N/A   Overcast
9:35 AM 26.6 °F 19.1 °F 19.4 °F 74% 30.01 in 10.0 mi NNW 6.9 mph - N/A   Overcast
9:55 AM 26.6 °F 19.1 °F 19.4 °F 74% 30.01 in 10.0 mi NNW 6.9 mph - N/A   Overcast
10:15 AM 28.4 °F 22.2 °F 19.4 °F 69% 30.01 in 10.0 mi North 5.8 mph - N/A   Overcast
10:35 AM 28.4 °F 19.7 °F 21.2 °F 74% 30.02 in 10.0 mi North 9.2 mph - N/A   Overcast
10:55 AM 28.4 °F 20.4 °F 21.2 °F 74% 30.02 in 10.0 mi North 8.1 mph - N/A   Overcast
11:15 AM 30.2 °F 25.4 °F 21.2 °F 69% 30.02 in 10.0 mi North 4.6 mph - N/A   Overcast
11:35 AM 30.2 °F 24.3 °F 21.2 °F 69% 30.02 in 10.0 mi NNW 5.8 mph - N/A   Overcast
11:55 AM 32.0 °F 26.4 °F 23.0 °F 69% 30.03 in 10.0 mi North 5.8 mph - N/A   Overcast
12:15 PM 32.0 °F 24.8 °F 23.0 °F 69% 30.03 in 10.0 mi North 8.1 mph - N/A   Overcast
12:35 PM 32.0 °F 23.6 °F 21.2 °F 64% 30.03 in 10.0 mi NNW 10.4 mph 16.1 mph N/A   Overcast
12:55 PM 32.0 °F 24.2 °F 21.2 °F 64% 30.03 in 10.0 mi NNW 9.2 mph 18.4 mph N/A   Overcast
1:15 PM 32.0 °F 25.6 °F 23.0 °F 69% 30.03 in 10.0 mi NNW 6.9 mph 16.1 mph N/A   Overcast
1:35 PM 32.0 °F 23.6 °F 23.0 °F 69% 30.03 in 10.0 mi NW 10.4 mph 17.3 mph N/A   Overcast
1:55 PM 33.8 °F 25.3 °F 23.0 °F 65% 30.03 in 10.0 mi NNW 11.5 mph 16.1 mph N/A   Overcast
2:15 PM 33.8 °F 24.8 °F 23.0 °F 65% 30.03 in 10.0 mi NNW 12.7 mph 17.3 mph N/A   Overcast
2:35 PM 33.8 °F 24.8 °F 23.0 °F 65% 30.03 in 10.0 mi NW 12.7 mph 17.3 mph N/A   Overcast
2:55 PM 33.8 °F 25.3 °F 21.2 °F 60% 30.03 in 10.0 mi NNW 11.5 mph 19.6 mph N/A   Overcast
3:15 PM 33.8 °F 27.0 °F 23.0 °F 65% 30.03 in 10.0 mi North 8.1 mph - N/A   Overcast
3:35 PM 33.8 °F 24.3 °F 21.2 °F 60% 30.03 in 10.0 mi NNW 13.8 mph 19.6 mph N/A   Overcast
3:55 PM 33.8 °F 27.0 °F 21.2 °F 60% 30.03 in 10.0 mi North 8.1 mph 17.3 mph N/A   Overcast
4:15 PM 33.8 °F 26.4 °F 21.2 °F 60% 30.03 in 10.0 mi NW 9.2 mph 16.1 mph N/A   Overcast
4:35 PM 33.8 °F 27.0 °F 23.0 °F 65% 30.04 in 10.0 mi NNW 8.1 mph - N/A   Overcast
4:55 PM 35.6 °F 28.0 °F 23.0 °F 60% 30.04 in 10.0 mi NW 10.4 mph 17.3 mph N/A   Overcast
5:15 PM 35.6 °F 26.6 °F 21.2 °F 56% 30.05 in 10.0 mi NNW 13.8 mph - N/A   Overcast
7:15 PM 33.8 °F 27.7 °F 19.4 °F 56% 30.09 in 10.0 mi NNW 6.9 mph - N/A   Overcast
7:35 PM 33.8 °F 25.3 °F 19.4 °F 56% 30.09 in 10.0 mi NNW 11.5 mph 17.3 mph N/A   Overcast
7:55 PM 33.8 °F 25.8 °F 19.4 °F 56% 30.11 in 10.0 mi NNW 10.4 mph - N/A   Overcast
8:15 PM 33.8 °F 28.6 °F 17.6 °F 52% 30.11 in 10.0 mi NNW 5.8 mph - N/A   Overcast
8:35 PM 33.8 °F 27.7 °F 19.4 °F 56% 30.12 in 10.0 mi NNW 6.9 mph - N/A   Overcast
8:55 PM 33.8 °F 28.6 °F 17.6 °F 52% 30.12 in 10.0 mi NNW 5.8 mph - N/A   Overcast
9:15 PM 33.8 °F 27.0 °F 19.4 °F 56% 30.13 in 10.0 mi North 8.1 mph - N/A   Overcast
9:35 PM 32.0 °F 26.4 °F 19.4 °F 60% 30.13 in 10.0 mi North 5.8 mph - N/A   Overcast
9:55 PM 32.0 °F 26.4 °F 19.4 °F 60% 30.14 in 10.0 mi North 5.8 mph - N/A   Overcast
10:15 PM 32.0 °F 28.7 °F 19.4 °F 60% 30.14 in 10.0 mi NNW 3.5 mph - N/A   Overcast
10:35 PM 32.0 °F 25.6 °F 19.4 °F 60% 30.14 in 10.0 mi NNW 6.9 mph - N/A   Overcast
10:55 PM 32.0 °F 23.6 °F 19.4 °F 60% 30.14 in 10.0 mi North 10.4 mph - N/A   Mostly Cloudy
11:15 PM 30.2 °F 26.7 °F 19.4 °F 64% 30.15 in 10.0 mi North 3.5 mph - N/A   Scattered Clouds
11:35 PM 30.2 °F - 19.4 °F 64% 30.15 in 10.0 mi Calm Calm - N/A   Clear
11:55 PM 28.4 °F 24.6 °F 19.4 °F 69% 30.16 in 10.0 mi NW 3.5 mph - N/A   Clear